Time,TemperatureF,DewpointF,PressureIn,WindDirection,WindDirectionDegrees,WindSpeedMPH,WindSpeedGustMPH,Humidity,HourlyPrecipIn,Conditions,Clouds,dailyrainin,SoftwareType,DateUTC
2013-04-09 00:09:00,59.9,50.0,30.10,NNW,330,4.0,13.0,70,0.00,,,0.00,weatherlink.com 1.10,2013-04-09 04:09:00,
2013-04-09 00:24:00,59.8,50.0,30.10,NNW,330,5.0,8.0,70,0.00,,,0.00,weatherlink.com 1.10,2013-04-09 04:24:00,
2013-04-09 00:39:00,59.9,50.0,30.10,NNW,330,3.0,10.0,70,0.00,,,0.00,weatherlink.com 1.10,2013-04-09 04:39:00,
2013-04-09 00:54:00,59.7,50.0,30.10,NNW,330,3.0,12.0,70,0.00,,,0.00,weatherlink.com 1.10,2013-04-09 04:54:00,
2013-04-09 01:09:00,59.7,50.0,30.11,NNW,330,5.0,13.0,70,0.00,,,0.00,weatherlink.com 1.10,2013-04-09 05:09:00,
2013-04-09 01:24:00,59.7,50.0,30.11,NNW,330,5.0,10.0,70,0.00,,,0.00,weatherlink.com 1.10,2013-04-09 05:24:00,
2013-04-09 01:54:00,59.0,50.0,30.11,NNW,330,2.0,8.0,71,0.00,,,0.00,weatherlink.com 1.10,2013-04-09 05:54:00,
2013-04-09 02:09:00,59.2,50.0,30.11,NNW,330,3.0,8.0,71,0.00,,,0.00,weatherlink.com 1.10,2013-04-09 06:09:00,
2013-04-09 02:24:00,59.0,50.0,30.11,NNW,330,3.0,9.0,72,0.00,,,0.00,weatherlink.com 1.10,2013-04-09 06:24:00,
2013-04-09 02:39:00,59.0,50.0,30.10,NNW,330,4.0,11.0,72,0.00,,,0.00,weatherlink.com 1.10,2013-04-09 06:39:00,
2013-04-09 02:54:00,58.8,50.0,30.10,NNW,330,4.0,8.0,72,0.00,,,0.00,weatherlink.com 1.10,2013-04-09 06:54:00,
2013-04-09 03:09:00,58.9,50.0,30.10,NNW,330,4.0,10.0,72,0.00,,,0.00,weatherlink.com 1.10,2013-04-09 07:09:00,
2013-04-09 03:24:00,58.8,50.0,30.10,NNW,330,4.0,9.0,72,0.00,,,0.00,weatherlink.com 1.10,2013-04-09 07:24:00,
2013-04-09 03:54:00,58.7,50.0,30.10,NNW,330,1.0,5.0,73,0.00,,,0.00,weatherlink.com 1.10,2013-04-09 07:54:00,
2013-04-09 04:09:00,58.6,50.0,30.11,NNW,330,2.0,6.0,73,0.00,,,0.00,weatherlink.com 1.10,2013-04-09 08:09:00,
2013-04-09 04:24:00,58.4,50.0,30.11,NNW,330,0.0,5.0,73,0.00,,,0.00,weatherlink.com 1.10,2013-04-09 08:24:00,
2013-04-09 04:39:00,58.2,50.0,30.11,NNW,330,0.0,6.0,73,0.00,,,0.00,weatherlink.com 1.10,2013-04-09 08:39:00,
2013-04-09 04:54:00,58.1,49.0,30.11,NNW,330,1.0,5.0,73,0.00,,,0.00,weatherlink.com 1.10,2013-04-09 08:54:00,
2013-04-09 05:09:00,57.8,50.0,30.11,NNW,330,2.0,6.0,74,0.00,,,0.00,weatherlink.com 1.10,2013-04-09 09:09:00,
2013-04-09 05:24:00,57.9,50.0,30.12,NNW,330,3.0,6.0,74,0.00,,,0.00,weatherlink.com 1.10,2013-04-09 09:24:00,
2013-04-09 05:39:00,58.0,49.0,30.12,NNW,330,5.0,6.0,73,0.00,,,0.00,weatherlink.com 1.10,2013-04-09 09:39:00,
2013-04-09 05:54:00,57.8,50.0,30.12,NNW,330,1.0,6.0,74,0.00,,,0.00,weatherlink.com 1.10,2013-04-09 09:54:00,
2013-04-09 06:09:00,57.8,50.0,30.13,NNW,330,1.0,2.0,74,0.00,,,0.00,weatherlink.com 1.10,2013-04-09 10:09:00,
2013-04-09 06:24:00,57.9,49.0,30.13,NNW,330,0.0,1.0,73,0.00,,,0.00,weatherlink.com 1.10,2013-04-09 10:24:00,
2013-04-09 06:40:00,58.4,50.0,30.14,NNW,330,0.0,3.0,73,0.00,,,0.00,weatherlink.com 1.10,2013-04-09 10:40:00,
2013-04-09 06:55:00,58.6,50.0,30.14,NNW,330,0.0,2.0,72,0.00,,,0.00,weatherlink.com 1.10,2013-04-09 10:55:00,
2013-04-09 07:10:00,58.8,50.0,30.15,NNW,330,0.0,1.0,72,0.00,,,0.00,weatherlink.com 1.10,2013-04-09 11:10:00,
2013-04-09 07:25:00,59.3,50.0,30.15,NNW,330,0.0,1.0,72,0.00,,,0.00,weatherlink.com 1.10,2013-04-09 11:25:00,
2013-04-09 07:40:00,60.3,51.0,30.16,NNW,330,0.0,0.0,71,0.00,,,0.00,weatherlink.com 1.10,2013-04-09 11:40:00,
2013-04-09 07:55:00,63.1,52.0,30.16,NNW,329,0.0,0.0,67,0.00,,,0.00,weatherlink.com 1.10,2013-04-09 11:55:00,
2013-04-09 08:10:00,64.7,53.0,30.17,NNW,329,0.0,1.0,65,0.00,,,0.00,weatherlink.com 1.10,2013-04-09 12:10:00,
2013-04-09 08:25:00,65.0,53.0,30.17,NNW,329,2.0,2.0,65,0.00,,,0.00,weatherlink.com 1.10,2013-04-09 12:25:00,
2013-04-09 08:40:00,65.3,53.0,30.18,NNW,329,0.0,2.0,64,0.00,,,0.00,weatherlink.com 1.10,2013-04-09 12:40:00,
2013-04-09 08:55:00,65.7,53.0,30.18,NNW,329,1.0,3.0,63,0.00,,,0.00,weatherlink.com 1.10,2013-04-09 12:55:00,
2013-04-09 09:10:00,64.9,52.0,30.18,NNW,329,1.0,3.0,64,0.00,,,0.00,weatherlink.com 1.10,2013-04-09 13:10:00,
2013-04-09 09:25:00,65.9,53.0,30.18,NNW,329,1.0,5.0,63,0.00,,,0.00,weatherlink.com 1.10,2013-04-09 13:25:00,
2013-04-09 09:40:00,66.2,53.0,30.18,NNW,329,2.0,6.0,62,0.00,,,0.00,weatherlink.com 1.10,2013-04-09 13:40:00,
2013-04-09 09:55:00,67.1,53.0,30.18,NNW,329,1.0,5.0,60,0.00,,,0.00,weatherlink.com 1.10,2013-04-09 13:55:00,
2013-04-09 10:10:00,67.5,53.0,30.19,NNW,329,0.0,5.0,60,0.00,,,0.00,weatherlink.com 1.10,2013-04-09 14:10:00,
2013-04-09 10:25:00,69.1,54.0,30.19,NNW,329,3.0,4.0,58,0.00,,,0.00,weatherlink.com 1.10,2013-04-09 14:25:00,
2013-04-09 10:40:00,70.7,55.0,30.20,NNW,329,3.0,4.0,58,0.00,,,0.00,weatherlink.com 1.10,2013-04-09 14:40:00,
2013-04-09 10:55:00,71.0,55.0,30.20,NNW,329,3.0,5.0,57,0.00,,,0.00,weatherlink.com 1.10,2013-04-09 14:55:00,
2013-04-09 11:10:00,72.3,55.0,30.20,NNW,329,3.0,5.0,54,0.00,,,0.00,weatherlink.com 1.10,2013-04-09 15:10:00,
2013-04-09 11:25:00,73.0,55.0,30.20,NNW,329,0.0,5.0,53,0.00,,,0.00,weatherlink.com 1.10,2013-04-09 15:25:00,
2013-04-09 11:40:00,74.5,55.0,30.19,NNW,328,2.0,7.0,50,0.00,,,0.00,weatherlink.com 1.10,2013-04-09 15:40:00,
2013-04-09 11:55:00,75.3,54.0,30.19,NNW,329,3.0,5.0,48,0.00,,,0.00,weatherlink.com 1.10,2013-04-09 15:55:00,
2013-04-09 12:25:00,75.3,53.0,30.19,NNW,328,2.0,7.0,46,0.00,,,0.00,weatherlink.com 1.10,2013-04-09 16:25:00,
2013-04-09 12:40:00,77.7,55.0,30.19,NNW,329,2.0,5.0,45,0.00,,,0.00,weatherlink.com 1.10,2013-04-09 16:40:00,
2013-04-09 12:56:00,77.4,55.0,30.18,NNW,328,3.0,7.0,46,0.00,,,0.00,weatherlink.com 1.10,2013-04-09 16:56:00,
2013-04-09 13:11:00,76.3,55.0,30.18,NNW,328,2.0,8.0,47,0.00,,,0.00,weatherlink.com 1.10,2013-04-09 17:11:00,
2013-04-09 13:26:00,76.8,54.0,30.17,NNW,329,3.0,7.0,45,0.00,,,0.00,weatherlink.com 1.10,2013-04-09 17:26:00,
2013-04-09 13:41:00,75.9,54.0,30.17,NNW,329,2.0,8.0,47,0.00,,,0.00,weatherlink.com 1.10,2013-04-09 17:41:00,
2013-04-09 13:56:00,75.8,54.0,30.17,NNW,329,2.0,5.0,47,0.00,,,0.00,weatherlink.com 1.10,2013-04-09 17:56:00,
2013-04-09 14:11:00,75.5,55.0,30.16,NNW,329,3.0,5.0,50,0.00,,,0.00,weatherlink.com 1.10,2013-04-09 18:11:00,
2013-04-09 14:26:00,76.5,55.0,30.16,NNW,329,1.0,7.0,48,0.00,,,0.00,weatherlink.com 1.10,2013-04-09 18:26:00,
2013-04-09 14:41:00,78.8,56.0,30.16,NNW,329,3.0,6.0,45,0.00,,,0.00,weatherlink.com 1.10,2013-04-09 18:41:00,
2013-04-09 14:56:00,78.5,55.0,30.15,NNW,328,3.0,8.0,44,0.00,,,0.00,weatherlink.com 1.10,2013-04-09 18:56:00,
2013-04-09 15:11:00,78.3,56.0,30.14,NNW,329,5.0,9.0,46,0.00,,,0.00,weatherlink.com 1.10,2013-04-09 19:11:00,
2013-04-09 15:26:00,78.0,56.0,30.14,NNW,328,2.0,7.0,47,0.00,,,0.00,weatherlink.com 1.10,2013-04-09 19:26:00,
2013-04-09 15:41:00,79.0,55.0,30.14,NNW,329,2.0,7.0,43,0.00,,,0.00,weatherlink.com 1.10,2013-04-09 19:41:00,
2013-04-09 15:56:00,78.9,55.0,30.14,NNW,329,2.0,6.0,44,0.00,,,0.00,weatherlink.com 1.10,2013-04-09 19:56:00,
2013-04-09 16:11:00,77.5,54.0,30.13,NNW,329,3.0,6.0,45,0.00,,,0.00,weatherlink.com 1.10,2013-04-09 20:11:00,
2013-04-09 16:26:00,75.4,54.0,30.12,NNW,329,2.0,7.0,48,0.00,,,0.00,weatherlink.com 1.10,2013-04-09 20:26:00,
2013-04-09 16:41:00,76.9,55.0,30.12,NNW,328,3.0,5.0,47,0.00,,,0.00,weatherlink.com 1.10,2013-04-09 20:41:00,
2013-04-09 17:11:00,73.9,55.0,30.12,NNW,329,0.0,7.0,51,0.00,,,0.00,weatherlink.com 1.10,2013-04-09 21:11:00,
2013-04-09 18:11:00,73.9,56.0,30.12,NNW,329,2.0,5.0,53,0.00,,,0.00,weatherlink.com 1.10,2013-04-09 22:11:00,
2013-04-09 18:26:00,73.0,55.0,30.13,NNW,329,3.0,7.0,54,0.00,,,0.00,weatherlink.com 1.10,2013-04-09 22:26:00,
2013-04-09 18:56:00,71.0,55.0,30.12,NNW,329,2.0,8.0,57,0.00,,,0.00,weatherlink.com 1.10,2013-04-09 22:56:00,
2013-04-09 19:11:00,69.9,54.0,30.13,NNW,329,2.0,4.0,58,0.00,,,0.00,weatherlink.com 1.10,2013-04-09 23:11:00,
2013-04-09 19:56:00,66.9,54.0,30.13,NNW,330,3.0,6.0,64,0.00,,,0.00,weatherlink.com 1.10,2013-04-09 23:56:00,
2013-04-09 20:11:00,66.4,54.0,30.13,NNW,330,2.0,10.0,65,0.00,,,0.00,weatherlink.com 1.10,2013-04-10 00:11:00,
2013-04-09 20:26:00,66.0,54.0,30.13,NNW,330,2.0,6.0,65,0.00,,,0.00,weatherlink.com 1.10,2013-04-10 00:26:00,
2013-04-09 20:41:00,65.4,54.0,30.13,NNW,330,1.0,5.0,66,0.00,,,0.00,weatherlink.com 1.10,2013-04-10 00:41:00,
2013-04-09 20:56:00,65.1,54.0,30.14,NNW,330,3.0,4.0,67,0.00,,,0.00,weatherlink.com 1.10,2013-04-10 00:56:00,
2013-04-09 21:11:00,65.0,54.0,30.14,NNW,330,3.0,4.0,67,0.00,,,0.00,weatherlink.com 1.10,2013-04-10 01:11:00,
2013-04-09 21:26:00,65.1,54.0,30.14,NNW,330,1.0,5.0,67,0.00,,,0.00,weatherlink.com 1.10,2013-04-10 01:26:00,
2013-04-09 21:41:00,64.9,54.0,30.14,NNW,330,2.0,6.0,67,0.00,,,0.00,weatherlink.com 1.10,2013-04-10 01:41:00,
2013-04-09 22:41:00,63.8,53.0,30.13,NNW,330,8.0,8.0,68,0.00,,,0.00,weatherlink.com 1.10,2013-04-10 02:41:00,
2013-04-09 23:11:00,63.6,53.0,30.13,NNW,330,6.0,8.0,69,0.00,,,0.00,weatherlink.com 1.10,2013-04-10 03:11:00,
2013-04-09 23:41:00,63.2,53.0,30.12,NNW,330,1.0,9.0,69,0.00,,,0.00,weatherlink.com 1.10,2013-04-10 03:41:00,
2013-04-09 23:56:00,63.3,53.0,30.12,NNW,330,2.0,10.0,69,0.00,,,0.00,weatherlink.com 1.10,2013-04-10 03:56:00,